Location: Bercimuel
(41.3983°N, 3.5711°W)
Time: 22:37:55
(UTC+00:00)

CZ-4B R/B - Pass Details

Date: 15 May 2026
Orbit: 442 x 557 km, 97.8° (Epoch: 10 June)

Event Time Altitude Azimuth Distance (km) Brightness Sun altitude
Exits shadow 22:25:31 23° 272° (W) 1,019 4.4 -24.8°
Drops below altitude 10° 22:28:02 10° 319° (NW) 1,607 6.2 -25.0°
Sets 22:30:24 0° 334° (NNW) 2,505 7.6 -25.2°
